Preview of NWS' New Version of Forecast
This preview is not operational and should not be used for support decisions.

Regional Weather Roundup (RWR)

Issued by National Weather Service (NWS)

                            
000
ASUS43 KDTX 211110
RWRMI 
MICHIGAN HOURLY REGIONAL WEATHER ROUNDUP
NATIONAL WEATHER SERVICE DETROIT/PONTIAC MI
600 AM EST THU FEB 21 2019

NOTE: "FAIR" INDICATES FEW OR NO CLOUDS BELOW 12,000 FEET WITH NO
SIGNIFICANT WEATHER AND/OR OBSTRUCTION TO VISIBILITY.

MIZ047>049-052>055-059>063-066>070-074>076-081>083-211200-
SOUTHEAST LOWER MICHIGAN
  
CITY           SKY/WX    TMP DP  RH WIND       PRES   REMARKS
ADRIAN         CLOUDY    34  27  75 W10       29.98R WCI  26          
ALMA           CLOUDY    33  24  70 SW8       29.90R WCI  26          
ANN ARBOR      CLOUDY    34  25  69 SW15      29.95R WCI  24          
BAD AXE        CLOUDY    35  28  75 W16G26    29.84R WCI  25          
CARO           CLOUDY    34  27  75 W16G24    29.87R WCI  24          
DETROIT CITY   CLOUDY    36  25  64 W13       29.94R WCI  27          
DETROIT        CLOUDY    35  23  61 W20G26    29.96R WCI  24          
FLINT          CLOUDY    34  23  64 W17G28    29.92R WCI  23          
GROSSE ILE     MOCLDY    35  26  70 W15       29.96R WCI  25          
HILLSDALE      CLOUDY    33  25  72 W14G20    29.96R WCI  24          
HOWELL         CLOUDY    34  23  65 W18G28    29.93R WCI  23          

CITY           SKY/WX    TMP DP  RH WIND       PRES   REMARKS
JACKSON        CLOUDY    33  25  72 SW15      29.95R WCI  23          
LAMBERTVILLE   CLOUDY    35  28  73 SW9       29.99R WCI  28          
LANSING        MOCLDY    33  22  63 W23       29.94R WCI  21          
LAPEER         CLOUDY    35  23  61 W13G23    29.90R WCI  27          
MASON          CLOUDY    34  25  71 W8G22     29.94R WCI  27          
MONROE         CLOUDY    34  30  84 SW9       29.97R WCI  27          
MT. CLEMENS    CLOUDY    36  30  79 SW14      29.91R WCI  27          
PONTIAC        CLOUDY    34  27  75 W16G26    29.90R WCI  24          
PORT HOPE        N/A     35  25  66 W13G26    29.82R WCI  26          
PORT HURON     CLOUDY    36  25  64 SW5G18    29.91R WCI  32          
TRI CITIES     CLOUDY    34  24  67 W23       29.88R WCI  22          
MIDLAND        CLOUDY    34  24  65 W10G17    29.87R WCI  26          
TROY           CLOUDY    36  24  62 W16G24    29.94R WCI  26          
SAGINAW HB     CLOUDY    34  27  75 W16G26    29.89R WCI  23          
$$
MIZ043>046-050>051-056>058-064>065-071>073-077>080-211200-
SOUTHWEST LOWER MICHIGAN
  
CITY           SKY/WX    TMP DP  RH WIND       PRES   REMARKS
BATTLE CREEK   CLOUDY    32  23  69 W17G29    29.97R WCI  21          
BENTON HARBOR  FAIR      31  21  66 W21G30    30.03R WCI  18          
BIG RAPIDS     CLOUDY    31  22  69 SW18      29.86R WCI  19          
COLDWATER      FAIR      33  23  68 W17G26    29.99R WCI  21          
FREMONT        CLOUDY    31  21  66 W18G24    29.92R WCI  19          
HOLLAND        FAIR      31  21  66 W20G32    29.99R WCI  19          
GRAND RAPIDS   CLOUDY    32  22  66 W22G33    29.95R WCI  19          
IONIA          CLOUDY    32  22  67 SW20G25   29.92R WCI  20          
KALAMAZOO      FAIR      32  21  64 W14G25    30.00R WCI  22          
LUDINGTON      CLOUDY    31  23  74 SW20G28   29.90R WCI  18          
MARSHALL       CLOUDY    32  23  69 W16G23    29.97R WCI  21          
MOUNT PLEASANT CLOUDY    33  21  62 W14G20    29.87R WCI  23          
MUSKEGON       FAIR      30  19  63 W23G31    29.96R WCI  17          
SOUTH HAVEN    MOCLDY    32  24  71 W15G23    30.01R WCI  22          
$$
MIZ016>042-211200-
NORTHERN LOWER MICHIGAN
  
CITY           SKY/WX    TMP DP  RH WIND       PRES   REMARKS
ALPENA         CLOUDY    33  23  66 W12G28    29.76R WCI  24          
BEAVER ISLAND  FLURRIES  30  25  83 W20G28    29.77R WCI  17          
BELLAIRE       FLURRIES  33  24  70 SW8G17    29.82R WCI  25          
CADILLAC       CLOUDY    29  21  70 W13G21    29.81R WCI  19          
CHARLEVOIX     FLURRIES  32  27  80 W16G22    29.82R WCI  21          
FRANKFORT      CLOUDY    31  22  67 W16G24    29.85R WCI  20          
GAYLORD        LGT SNOW  27  24  89 W25G35    29.75R FOG     WCI  12  
GRAYLING       CLOUDY    30  21  68 W10G18    29.78R WCI  21          
HARBOR SPRINGS CLOUDY    31  28  86 W14G21    29.76R WCI  21          
HOUGHTON LAKE  CLOUDY    29  23  78 SW10G20   29.82R WCI  20          
MANISTEE       MIX PCPN  31  23  72 W15G24    29.88R WCI  20          
OSCODA         CLOUDY    32  27  80 W15       29.80R WCI  22          
PELLSTON       CLOUDY    31  23  72 W21G40    29.75R WCI  18          
ROGERS CITY    FLURRIES  32  25  76 W10G16    29.75R WCI  23          
TRAVERSE CITY  CLOUDY    33  21  61 W15G22    29.82R WCI  23          
$$
MIZ007>008-015-211200-
EASTERN UPPER MICHIGAN
  
CITY           SKY/WX    TMP DP  RH WIND       PRES   REMARKS
KINROSS        FLURRIES  25  23  92 W12       29.72R WCI  14          
MACKINAC ISLAN FLURRIES  28  27  95 W24G30    29.74R WCI  14          
NEWBERRY       CLOUDY    24  22  92 MISG      29.73R                  
S. S. MARIE    CLOUDY    27  23  85 W12G18    29.70R WCI  17          
MUNISING         N/A     23  18  81 SW9       29.74R WCI  13          
$$
MIZ004>006-011>014-085-211200-
CENTRAL UPPER MICHIGAN
  
CITY           SKY/WX    TMP DP  RH WIND       PRES   REMARKS
MANISTIQUE     CLOUDY    26  20  78 W7        29.76R WCI  18          
ESCANABA       CLOUDY    22  20  92 W6        29.80R WCI  14          
MENOMINEE      CLOUDY    25  19  78 W8        29.84R WCI  16          
SAWYER-GWINN   FLURRIES  21  19  89 SW8       29.72R WCI  12          
$$
MIZ001>003-009>011-084-211200-
WESTERN UPPER MICHIGAN
  
CITY           SKY/WX    TMP DP  RH WIND       PRES   REMARKS
IRON MOUNTAIN  CLOUDY    24  19  81 W3        29.75R                  
HOUGHTON       CLOUDY    24  20  84 W16       29.70R WCI  11          
COPPER HARBOR    N/A     26  23  88 N16       29.69R WCI  14          
IRONWOOD       FLURRIES  21  19  92 W13       29.77R WCI   9          
$$

ABBREVIATIONS USED IN REMARKS
   TC - TEMPERATURE IN CELSIUS
  WCI - WIND CHILL INDEX
   HX - HEAT INDEX
  VSB - VISIBILITY